Regional Weather Roundup
Issued by NWS Cleveland, OH

Home | Current Version | Previous Version | Text Only | Print | Product List | Glossary Off
Versions: 1 2 3 4 5 6 7 8 9 10 11 12 13 14 15 16 17 18 19 20 21 22 23 24 25 26 27 28 29 30 31 32 33 34 35 36 37 38 39 40 41 42 43 44 45 46 47 48 49 50

000
ASUS41 KCLE 250302
RWRCLE
OHIO REGIONAL WEATHER ROUNDUP
NATIONAL WEATHER SERVICE CLEVELAND, OH
1100 PM EDT FRI OCT 24 2014

NOTE: "FAIR" INDICATES FEW OR NO CLOUDS BELOW 12,000 FEET WITH NO
SIGNIFICANT WEATHER AND/OR OBSTRUCTIONS TO VISIBILITY.

OHZ001>008-015>018-024>027-034-035-043-044-250400-
   NORTHWEST OHIO

CITY           SKY/WX    TMP DP  RH WIND       PRES   REMARKS
DEFIANCE       PTCLDY    52  47  83 SW5       30.00R
FINDLAY        PTCLDY    48  43  82 S7        30.00R
TOLEDO EXPRESS MOCLDY    49  45  86 CALM      29.99S
TOLEDO EXEC    MOCLDY    51  44  77 CALM      29.99F
LIMA           MOCLDY    54  44  69 SW6       30.01S
$$

OHZ009>014-019>023-028>033-038-089-250400-
   NORTHEAST OHIO

CITY           SKY/WX    TMP DP  RH WIND       PRES   REMARKS
CLE-HOPKINS    CLOUDY    53  46  77 CALM      30.02S
CLE-LAKEFRONT  MOCLDY    55  44  66 SW6       29.99S
CUY CO. ARPT   MOCLDY    52  48  87 CALM      30.00S
LORAIN-ELYRIA  MOCLDY    51  43  74 W3        30.01S
ASHTABULA      CLOUDY    50  44  80 CALM      30.00S
AKRON-CANTON   PTCLDY    52  40  63 SW5       30.00F
WOOSTER        PTCLDY    47  40  76 CALM      30.02R
MANSFIELD      PTCLDY    51  38  60 SW6       30.01S
YOUNGSTOWN     CLOUDY    49  41  74 CALM      29.99F
$$

OHZ042-051>053-060>062-070>072-077>081-250400-
  SOUTHWEST OHIO

CITY           SKY/WX    TMP DP  RH WIND       PRES   REMARKS
CINC-COVINGTON PTCLDY    49  41  74 CALM      30.04S
CINC-LUNKEN    CLEAR     46  44  93 CALM      30.06S
HAMILTON       CLEAR     43  41  93 CALM      30.05S
DAYTON         CLEAR     50  41  71 SW5       30.04R
WRIGHT-PAT AFB PTCLDY    48  40  73 CALM      30.03S
DAYTON GENERAL CLEAR     52  40  63 CALM      30.03S
WILMINGTON     CLEAR     50  37  61 CALM      30.04S
$$

OHZ036-037-039>041-045>050-054>059-063>069-073>076-082>088-250400-
  CENTRAL AND SOUTHEAST OHIO

CITY           SKY/WX    TMP DP  RH WIND       PRES   REMARKS
COLUMBUS       PTCLDY    48  40  73 CALM      30.02S
OSU AIRPORT    CLEAR     49  38  65 W3        30.02S HAZE
BOLTON FIELD   PTCLDY    48  38  69 SW3       30.03S
RICKENBACK AFB NOT AVBL
NEWARK         CLEAR     42  39  89 CALM      30.02F
MARION         CLEAR     50  38  63 SW5       30.01F
LANCASTER      PTCLDY    43  39  86 CALM      30.03F
ZANESVILLE     CLEAR     44  38  79 CALM      30.03S
NEW PHILLY     MOCLDY    49  43  80 SE3       30.02F
$$



USA.gov is the U.S. government's official web portal to all federal, state and local government web resources and services.